• En España
  • Lista de países
  • Para 7 días
  • Temperatura del agua
  • Mapa Satelital
  • El tiempo en el mapa
  • Informadores
  • user-avatar
    Iniciar sesión

    Tiempo cada hora Zaborskoe

    Hoy, 17 Octubre, Miércoles

    Tiempo Temperatura Precipitaciones Viento Presión Humedad
    00:00 +4°C° 0 mm 3 mps 745 mmHg 97%
    01:00 +5°C° 0 mm 3 mps 744 mmHg 97%
    02:00 +5°C° 0 mm 4 mps 744 mmHg 96%
    03:00 +5°C° 0 mm 4 mps 743 mmHg 96%
    04:00 +6°C° 0 mm 5 mps 742 mmHg 95%
    05:00 +6°C° 0 mm 5 mps 742 mmHg 95%
    06:00 +6°C° 0 mm 5 mps 741 mmHg 94%
    07:00 +6°C° 0 mm 5 mps 741 mmHg 94%
    08:00 +6°C° 0.1 mm 5 mps 740 mmHg 92%
    09:00 +7°C° 0.1 mm 5 mps 740 mmHg 90%
    10:00 +7°C° 0.1 mm 5 mps 740 mmHg 88%
    11:00 +7°C° 0.1 mm 6 mps 740 mmHg 84%
    12:00 +6°C° 0.1 mm 7 mps 740 mmHg 79%
    13:00 +6°C° 0.1 mm 7 mps 741 mmHg 74%
    14:00 +6°C° 0 mm 7 mps 741 mmHg 72%
    15:00 +5°C° 0 mm 7 mps 742 mmHg 70%
    16:00 +4°C° 0 mm 7 mps 743 mmHg 68%
    17:00 +4°C° 0 mm 6 mps 744 mmHg 70%
    18:00 +3°C° 0 mm 6 mps 745 mmHg 72%
    19:00 +3°C° 0 mm 5 mps 746 mmHg 75%
    20:00 +2°C° 0 mm 5 mps 746 mmHg 76%
    21:00 +2°C° 0 mm 5 mps 747 mmHg 78%
    22:00 +2°C° 0 mm 5 mps 747 mmHg 80%
    23:00 +1°C° 0 mm 5 mps 747 mmHg 82%

    Mañana, 18 Octubre, Jueves

    Tiempo Temperatura Precipitaciones Viento Presión Humedad
    00:00 +1°C° 0 mm 5 mps 748 mmHg 84%
    01:00 +1°C° 0 mm 4 mps 748 mmHg 86%
    02:00 +1°C° 0 mm 5 mps 748 mmHg 86%
    03:00 +1°C° 0 mm 5 mps 749 mmHg 85%
    04:00 +1°C° 0 mm 5 mps 749 mmHg 85%
    05:00 +1°C° 0 mm 4 mps 749 mmHg 85%
    06:00 +1°C° 0 mm 4 mps 749 mmHg 84%
    07:00 +1°C° 0 mm 4 mps 749 mmHg 84%
    08:00 +3°C° 0 mm 4 mps 749 mmHg 82%
    09:00 +2°C° 0 mm 5 mps 750 mmHg 79%
    10:00 +2°C° 0 mm 5 mps 750 mmHg 77%
    11:00 +3°C° 0 mm 5 mps 750 mmHg 75%
    12:00 +4°C° 0 mm 4 mps 750 mmHg 73%
    13:00 +4°C° 0 mm 4 mps 750 mmHg 71%
    14:00 +4°C° 0 mm 4 mps 750 mmHg 73%
    15:00 +4°C° 0 mm 4 mps 750 mmHg 74%
    16:00 +4°C° 0 mm 3 mps 750 mmHg 75%
    17:00 +3°C° 0 mm 3 mps 750 mmHg 80%
    18:00 +3°C° 0 mm 2 mps 750 mmHg 85%
    19:00 +2°C° 0 mm 2 mps 750 mmHg 90%
    20:00 +3°C° 0 mm 2 mps 749 mmHg 90%
    21:00 +3°C° 0 mm 2 mps 749 mmHg 90%
    22:00 +3°C° 0 mm 2 mps 748 mmHg 90%
    23:00 +3°C° 0.2 mm 2 mps 748 mmHg 90%

    Pasado mañana, 19 Octubre, Viernes

    Tiempo Temperatura Precipitaciones Viento Presión Humedad
    00:00 +2°C° 0.2 mm 3 mps 747 mmHg 90%
    01:00 +3°C° 0.2 mm 3 mps 747 mmHg 89%
    02:00 +3°C° 0.4 mm 3 mps 746 mmHg 91%
    03:00 +3°C° 0.4 mm 3 mps 746 mmHg 92%
    04:00 +3°C° 0.4 mm 4 mps 746 mmHg 93%
    05:00 +4°C° 0.2 mm 3 mps 745 mmHg 94%
    06:00 +4°C° 0.2 mm 3 mps 745 mmHg 95%
    07:00 +4°C° 0.2 mm 3 mps 745 mmHg 96%
    08:00 +5°C° 0.1 mm 3 mps 745 mmHg 95%
    09:00 +7°C° 0.1 mm 3 mps 745 mmHg 94%
    10:00 +7°C° 0.1 mm 3 mps 745 mmHg 93%
    11:00 +7°C° 0 mm 3 mps 744 mmHg 92%
    12:00 +8°C° 0 mm 3 mps 744 mmHg 91%
    13:00 +8°C° 0 mm 3 mps 744 mmHg 90%
    14:00 +8°C° 0 mm 3 mps 744 mmHg 90%
    15:00 +8°C° 0 mm 3 mps 744 mmHg 90%
    16:00 +8°C° 0 mm 3 mps 744 mmHg 90%
    17:00 +8°C° 0 mm 3 mps 744 mmHg 90%
    18:00 +6°C° 0 mm 4 mps 744 mmHg 91%
    19:00 +6°C° 0 mm 4 mps 744 mmHg 91%
    20:00 +6°C° 0 mm 4 mps 743 mmHg 92%
    21:00 +6°C° 0 mm 4 mps 743 mmHg 93%
    22:00 +6°C° 0 mm 4 mps 743 mmHg 93%
    23:00 +6°C° 0 mm 4 mps 742 mmHg 94%

    20 Octubre, Sábado

    Tiempo Temperatura Precipitaciones Viento Presión Humedad
    00:00 +6°C° 0 mm 4 mps 742 mmHg 94%
    01:00 +6°C° 0 mm 4 mps 742 mmHg 94%
    02:00 +6°C° 0.4 mm 4 mps 742 mmHg 94%
    03:00 +7°C° 0.4 mm 4 mps 742 mmHg 94%
    04:00 +7°C° 0.4 mm 4 mps 741 mmHg 95%
    05:00 +6°C° 0.1 mm 4 mps 741 mmHg 95%
    06:00 +7°C° 0.1 mm 3 mps 741 mmHg 95%
    07:00 +7°C° 0.1 mm 3 mps 741 mmHg 95%
    08:00 +7°C° 0 mm 3 mps 741 mmHg 91%
    09:00 +7°C° 0 mm 3 mps 741 mmHg 88%
    10:00 +6°C° 0 mm 4 mps 741 mmHg 84%
    11:00 +7°C° 0 mm 4 mps 742 mmHg 80%
    12:00 +7°C° 0 mm 4 mps 742 mmHg 75%
    13:00 +7°C° 0 mm 4 mps 742 mmHg 71%
    14:00 +7°C° 0.1 mm 4 mps 742 mmHg 72%
    15:00 +7°C° 0.1 mm 4 mps 742 mmHg 74%
    16:00 +6°C° 0.1 mm 4 mps 742 mmHg 76%
    17:00 +6°C° 0.1 mm 4 mps 742 mmHg 78%
    18:00 +5°C° 0.1 mm 4 mps 742 mmHg 80%
    19:00 +5°C° 0.1 mm 4 mps 743 mmHg 82%
    20:00 +5°C° 0 mm 4 mps 743 mmHg 82%
    21:00 +4°C° 0 mm 4 mps 743 mmHg 83%
    22:00 +4°C° 0 mm 4 mps 743 mmHg 83%
    23:00 +4°C° 0 mm 4 mps 743 mmHg 84%

    21 Octubre, Domingo

    Tiempo Temperatura Precipitaciones Viento Presión Humedad
    00:00 +4°C° 0 mm 4 mps 744 mmHg 85%
    01:00 +4°C° 0 mm 4 mps 744 mmHg 87%
    02:00 +3°C° 0 mm 4 mps 744 mmHg 88%
    03:00 +3°C° 0 mm 4 mps 744 mmHg 89%
    04:00 +1°C° 0 mm 4 mps 745 mmHg 90%
    05:00 +1°C° 0 mm 4 mps 745 mmHg 89%
    06:00 +1°C° 0 mm 4 mps 745 mmHg 88%
    07:00 +1°C° 0 mm 4 mps 745 mmHg 88%
    08:00 +1°C° 0 mm 4 mps 746 mmHg 85%
    09:00 +2°C° 0 mm 5 mps 746 mmHg 82%
    10:00 +2°C° 0 mm 5 mps 746 mmHg 79%
    11:00 +2°C° 0 mm 5 mps 747 mmHg 78%
    12:00 +2°C° 0 mm 5 mps 747 mmHg 76%
    13:00 +3°C° 0 mm 5 mps 747 mmHg 75%
    14:00 +2°C° 0.1 mm 5 mps 748 mmHg 75%
    15:00 +3°C° 0.1 mm 4 mps 748 mmHg 75%
    16:00 +3°C° 0.1 mm 4 mps 748 mmHg 75%
    17:00 +3°C° 0 mm 4 mps 748 mmHg 77%
    18:00 +1°C° 0 mm 4 mps 749 mmHg 79%
    19:00 +2°C° 0 mm 3 mps 749 mmHg 80%
    20:00 +2°C° 0 mm 3 mps 749 mmHg 81%
    21:00 +1°C° 0 mm 3 mps 749 mmHg 82%
    22:00 +1°C° 0 mm 3 mps 750 mmHg 83%
    23:00 +1°C° 0 mm 3 mps 750 mmHg 83%

    22 Octubre, Lunes

    Tiempo Temperatura Precipitaciones Viento Presión Humedad
    00:00 +1°C° 0 mm 3 mps 750 mmHg 84%
    01:00 +1°C° 0 mm 3 mps 750 mmHg 85%
    02:00 +2°C° 0 mm 2 mps 750 mmHg 86%
    03:00 +2°C° 0 mm 2 mps 750 mmHg 87%
    04:00 +2°C° 0 mm 2 mps 751 mmHg 88%
    05:00 +1°C° 0 mm 2 mps 751 mmHg 89%
    06:00 +1°C° 0 mm 2 mps 751 mmHg 90%
    07:00 +1°C° 0 mm 2 mps 751 mmHg 91%
    08:00 +2°C° 0 mm 2 mps 751 mmHg 86%
    09:00 +1°C° 0 mm 3 mps 751 mmHg 81%
    10:00 +2°C° 0 mm 3 mps 751 mmHg 76%
    11:00 +2°C° 0 mm 3 mps 751 mmHg 72%
    12:00 +2°C° 0 mm 3 mps 751 mmHg 68%
    13:00 +3°C° 0 mm 3 mps 751 mmHg 64%
    14:00 +3°C° 0 mm 3 mps 751 mmHg 66%
    15:00 +3°C° 0 mm 2 mps 751 mmHg 69%
    16:00 +4°C° 0 mm 1 mps 751 mmHg 71%
    17:00 +3°C° 0 mm 1 mps 751 mmHg 75%
    18:00 +3°C° 0 mm 1 mps 752 mmHg 78%
    19:00 +2°C° 0 mm 1 mps 752 mmHg 82%
    20:00 +2°C° 0 mm 1 mps 752 mmHg 83%
    21:00 +2°C° 0 mm 1 mps 752 mmHg 85%
    22:00 +2°C° 0 mm 1 mps 752 mmHg 87%
    23:00 -1°C° 0 mm 2 mps 752 mmHg 88%
    Mostrar más